Location: Kumla
(59.1265°N, 15.1401°E)
Time: 19:52:24
(UTC+01:00)

Vanguard 1 Rocket - Pass Details

Date: 06 December 2023
Orbit: 654 x 4218 km, 34.3° (Epoch: 21 February)

Event Time Altitude Azimuth Distance (km) Brightness Sun altitude
Rises 07:04:39 0° 244° (WSW) 7,624 11.7 -10.2°
Reaches altitude 10° 07:12:05 10° 232° (SW) 5,970 11.3 -9.3°
Maximum altitude 07:22:52 21° 193° (SSW) 3,951 10.9 -8.1°
Drops below altitude 10° 07:30:10 10° 149° (SSE) 3,877 11.8 -7.3°
Sets 07:33:37 0° 133° (SE) 4,408 13.1 -7.0°
